Simultaneous Nadir Overpasses (SNOs) Predictions

Prediction of SNOs between GOES-14 and NPP Satellite Orbit:

Table of predicted SNOs for the next 14.0 days since TLE Epoch: 11/7/2020
Index Date Time (GOES-14) GOES-14 Lat,Lon NPP Lat,Lon Distance(km) Time Diff (sec)
1 11/08/2020 08:32:41 0.07,-104.37 0.57,-106.51 244.17 80
2 11/09/2020 08:11:16 0.09,-104.36 -0.43,-101.98 271.30 80
3 11/10/2020 20:33:11 -0.05,-104.20 -0.76,-107.28 351.58 80
4 11/11/2020 20:17:06 -0.07,-104.20 0.24,-102.74 165.78 80
5 11/13/2020 08:38:54 0.04,-104.37 0.85,-108.03 416.70 80
6 11/14/2020 08:17:28 0.06,-104.36 -0.15,-103.50 98.93 80
7 11/16/2020 20:20:37 -0.05,-104.17 -0.09,-104.25 10.23 80
8 11/19/2020 08:26:20 0.03,-104.35 0.18,-105.00 74.25 80
9 11/20/2020 08:04:55 0.05,-104.34 -0.83,-100.47 441.27 80
